GW4132 Weather Reports


Display with metric or nautical units.
time (UTC)temp
F
wind
direction
speed
MPH
gust
MPH
rain 1hr
in
rain 24hr
in
rain mn
in
humidity
%
barometer
mb
20260506061557 44 49 0.0 1.0 0.00 0.00 0.00 95 1020.7
20260506044605 46 49 0.0 1.0 0.00 0.00 0.00 89 1020.5
20260506043328 47 49 0.0 1.0 0.00 0.00 0.00 88 1020.3
20260506041609 47 49 0.0 1.0 0.00 0.00 0.00 87 1020.2
20260506040101 48 49 0.0 1.0 0.00 0.00 0.00 86 1020.1
20260506034613 49 49 0.0 1.0 0.00 0.00 0.00 84 1019.9
20260506033334 50 49 0.0 1.0 0.00 0.00 0.00 83 1019.8
20260506031823 51 49 0.0 1.0 0.00 0.00 0.00 80 1019.7
20260506030057 53 49 0.0 1.0 0.00 0.00 0.00 78 1019.7
20260506024608 55 49 0.0 1.0 0.00 0.00 0.00 76 1019.3
20260506023105 56 49 0.0 1.0 0.00 0.00 0.00 73 1019.2
20260506021556 57 346 0.0 2.0 0.00 0.00 0.00 72 1019.2
20260506020522 57 26 0.0 2.0 0.00 0.00 0.00 71 1019.1
20260506014821 58 5 0.0 3.0 0.00 0.00 0.00 71 1019.2
20260506013039 58 350 1.0 4.0 0.00 0.00 0.00 69 1018.9
20260506011540 59 18 0.0 2.0 0.00 0.00 0.00 69 1019.1
20260506010037 60 38 0.0 3.0 0.00 0.00 0.00 69 1019.1
20260506004604 61 32 1.0 3.0 0.00 0.00 0.00 67 1019.0
20260506003047 62 279 2.0 6.0 0.00 0.00 0.00 63 1019.2
20260506001602 64 44 2.0 5.0 0.00 0.00 0.00 59 1019.1
20260506000118 66 13 1.0 4.0 0.00 0.00 0.00 57 1019.3
20260505234549 66 42 1.0 4.0 0.00 0.00 0.00 56 1019.2
20260505233053 68 104 2.0 5.0 0.00 0.00 0.00 52 1019.2
20260505231551 69 88 1.0 4.0 0.00 0.00 0.00 52 1019.3
20260505230046 69 62 2.0 6.0 0.00 0.00 0.00 53 1019.3
20260505224545 69 62 2.0 6.0 0.00 0.00 0.00 50 1019.5
20260505223040 69 86 1.0 5.0 0.00 0.00 0.00 51 1019.6
20260505221547 69 140 1.0 6.0 0.00 0.00 0.00 54 1019.5
20260505220034 68 107 2.0 4.0 0.00 0.00 0.00 53 1019.6
20260505214551 69 27 2.0 6.0 0.00 0.00 0.00 54 1019.6
20260505213051 69 37 2.0 6.0 0.00 0.00 0.00 52 1019.8
20260505211532 70 93 2.0 6.0 0.00 0.00 0.00 53 1019.8
20260505210046 69 188 2.0 6.0 0.00 0.00 0.00 55 1019.8
20260505204558 69 31 2.0 5.0 0.00 0.00 0.00 53 1019.8
20260505203042 69 161 1.0 4.0 0.00 0.00 0.00 53 1019.9
20260505201541 69 104 1.0 4.0 0.00 0.00 0.00 50 1019.7
20260505200054 69 165 1.0 4.0 0.00 0.00 0.00 51 1019.6
20260505194556 68 139 2.0 4.0 0.00 0.00 0.00 52 1019.6
20260505193047 67 168 2.0 6.0 0.00 0.00 0.00 53 1019.6
20260505191548 66 205 2.0 4.0 0.00 0.00 0.00 55 1019.6
20260505190115 66 136 1.0 6.0 0.00 0.00 0.00 55 1019.6
20260505184557 65 161 2.0 4.0 0.00 0.00 0.00 60 1019.5
20260505183052 63 149 1.0 4.0 0.00 0.00 0.00 61 1019.5
20260505181606 62 168 1.0 4.0 0.00 0.00 0.00 64 1019.4
20260505180103 61 119 1.0 5.0 0.00 0.00 0.00 66 1019.5
20260505174545 61 108 1.0 4.0 0.00 0.00 0.00 67 1019.5
20260505173048 60 179 1.0 5.0 0.00 0.00 0.00 68 1019.5
20260505171558 58 168 1.0 4.0 0.00 0.00 0.00 69 1019.3
20260505170044 58 136 1.0 3.0 0.00 0.00 0.00 69 1019.3
20260505164547 57 166 1.0 3.0 0.00 0.00 0.00 71 1019.2
20260505163509 57 128 1.0 3.0 0.00 0.00 0.00 73 1019.3
20260505161552 56 193 0.0 3.0 0.00 0.00 0.00 76 1019.1
20260505151602 44 352 0.0 1.0 0.00 0.00 0.00 94 1019.0
20260505150312 44 352 0.0 0.0 0.00 0.00 0.00 94 1018.9
20260505124607 43 352 0.0 1.0 0.00 0.00 0.00 90 1018.1
20260505123044 43 352 0.0 2.0 0.00 0.00 0.00 90 1018.0
20260505121542 43 352 0.0 2.0 0.00 0.00 0.00 89 1017.9
20260505114548 43 352 0.0 1.0 0.00 0.00 0.00 89 1017.9
20260505113050 44 352 0.0 0.0 0.00 0.00 0.00 89 1017.9
20260505111603 44 352 0.0 2.0 0.00 0.00 0.00 89 1017.8
20260505110312 44 352 0.0 1.0 0.00 0.00 0.00 89 1017.9
20260505101547 44 352 0.0 1.0 0.00 0.00 0.00 88 1017.9
20260505100043 45 352 0.0 1.0 0.00 0.00 0.00 87 1017.9
20260505094543 45 352 1.0 2.0 0.00 0.00 0.00 86 1017.8
20260505093042 45 352 0.0 1.0 0.00 0.00 0.00 86 1017.8
20260505091554 45 352 0.0 1.0 0.00 0.00 0.00 85 1017.8
20260505090054 46 352 0.0 1.0 0.00 0.00 0.00 83 1017.8
20260505084605 46 352 0.0 1.0 0.00 0.00 0.00 82 1017.7
20260505083117 47 352 0.0 1.0 0.00 0.00 0.00 80 1017.7
20260505081553 46 352 0.0 2.0 0.00 0.00 0.00 81 1017.8
20260505080025 47 352 0.0 1.0 0.00 0.00 0.00 81 1017.8
20260505074550 47 352 0.0 1.0 0.00 0.00 0.00 80 1017.7
20260505073055 47 352 0.0 2.0 0.00 0.00 0.00 79 1017.7
20260505071546 47 352 0.0 2.0 0.00 0.00 0.00 80 1017.7